Theta_e
282 283 284 284 285 285 285 286 282 282 282 285 288 289 290 290 290 290 290 290 290 290 291 290 290 288 285 283 282 281 280 280 280 280 280 280 280 280 280 280 280 281 281 281
278 283 282 282 284 285 286 286 286 285 283 287 290 290 289 290 291 291 290 290 289 288 288 289 289 288 286 283 281 281 279 279 279 279 279 279 279 279 279 279 279 280 280 280
279 280 281 278 281 283 285 287 287 283 289 290 289 289 290 291 292 292 292 291 288 288 288 287 287 287 286 283 280 280 279 279 278 278 278 278 278 278 278 278 279 278 279 279
275 277 272 281 280 284 286 288 289 289 289 292 293 294 293 294 295 293 290 289 287 287 287 286 283 282 281 280 279 278 278 278 277 277 277 277 277 277 277 278 277 277 278 279
274 267 276 281 280 281 283 283 287 290 291 288 288 284 286 290 290 291 289 288 287 286 285 281 280 279 278 276 277 277 276 276 276 277 276 276 276 276 276 277 277 277 277 277
265 274 267 277 281 283 285 279 286 289 289 285 283 282 289 287 286 287 286 285 284 281 277 277 276 277 276 275 275 275 275 276 276 276 276 276 276 275 276 277 277 277 276 276
267 271 272 280 280 283 273 278 280 286 288 282 284 289 285 283 282 283 283 282 278 274 276 275 274 274 274 273 273 274 274 275 275 276 276 276 276 276 276 276 276 274 273 273
274 274 272 280 280 279 282 280 281 282 283 283 284 282 281 281 281 281 281 277 277 274 275 272 273 274 274 273 273 272 273 273 273 274 276 276 275 276 276 275 273 271 271 271
281 280 282 280 281 282 281 283 282 280 280 282 282 281 281 281 280 280 280 277 274 275 274 270 271 272 272 271 270 270 271 270 271 273 275 275 275 275 273 273 272 270 270 269
279 279 281 282 281 281 282 281 280 280 281 280 280 279 279 279 280 279 276 277 274 271 271 273 270 272 272 270 270 270 270 270 271 273 274 275 276 275 274 272 271 270 269 267
274 276 276 279 282 283 283 280 280 280 281 281 280 280 280 279 279 278 278 274 271 273 274 275 269 269 267 268 270 270 270 270 272 273 273 274 274 274 273 273 273 269 267 266
277 281 282 283 280 281 281 281 281 281 278 277 279 280 277 278 278 277 276 272 271 271 271 271 267 267 266 268 270 270 270 270 272 272 272 272 272 272 276 275 276 275 273 267
281 275 276 276 272 273 278 278 277 278 279 279 275 278 275 278 277 275 272 268 270 273 272 265 265 265 266 269 271 271 271 272 272 272 271 270 270 270 269 274 276 275 274 273
277 276 277 272 279 275 274 278 274 273 274 276 276 270 271 272 267 268 270 272 267 265 264 264 265 267 268 270 271 271 273 272 272 271 271 270 269 269 269 268 267 268 271 272
279 278 279 273 270 271 268 269 273 275 272 272 269 273 267 272 273 275 267 263 262 261 264 266 267 267 269 271 272 272 272 271 271 270 270 269 268 266 264 263 264 259 257 263
270 269 270 272 277 274 269 264 270 277 269 273 272 272 274 272 273 264 262 263 266 268 268 268 267 270 271 271 271 271 271 270 269 268 266 265 263 261 259 260 259 258 257 259
272 271 265 269 271 274 273 273 273 274 272 271 273 273 269 268 262 262 264 266 269 267 268 268 268 268 270 271 270 270 268 267 266 264 264 262 260 260 260 258 258 256 258 255
268 269 267 269 269 270 273 265 265 267 270 271 272 267 266 264 269 269 263 261 261 260 262 263 264 266 267 267 267 265 265 263 263 263 259 258 259 259 258 257 256 256 253 252
258 263 261 261 260 260 262 263 262 261 263 264 263 268 266 265 264 262 262 262 261 261 262 259 267 263 263 265 264 263 261 259 257 256 256 255 254 254 255 255 254 253 253 253
257 255 256 256 254 256 261 261 262 261 263 258 259 259 263 260 258 260 261 263 264 263 259 260 264 260 260 264 264 260 259 258 257 255 254 254 254 252 252 252 253 253 252 251
262 258 257 256 256 256 256 257 255 258 259 255 259 262 262 259 257 258 257 260 259 253 257 260 259 258 260 261 260 259 258 257 257 255 254 254 253 253 252 252 252 253 252 252
258 259 262 255 252 256 256 252 252 254 256 255 256 255 255 255 254 255 255 260 255 257 258 259 259 257 259 259 258 257 257 257 257 255 254 254 254 253 253 253 252 253 253 253
257 256 256 254 255 257 250 251 253 254 256 256 257 257 259 258 258 258 260 258 255 257 258 259 259 259 260 258 257 257 256 256 256 256 255 255 255 255 255 254 254 254 253 253
256 254 255 249 246 249 257 257 252 253 252 251 255 257 256 256 255 256 253 256 257 260 259 258 261 262 259 257 256 256 256 256 256 255 256 254 254 254 253 253 254 254 254 254
255 254 250 249 251 259 256 255 252 251 248 251 253 254 256 258 262 258 257 255 259 259 258 261 263 262 258 257 257 257 257 256 256 255 255 254 254 254 254 254 254 255 254 255
252 259 258 256 259 256 254 251 256 253 250 254 254 254 254 255 256 255 257 256 257 258 257 259 261 260 257 257 257 257 257 256 256 255 255 255 255 255 254 254 255 255 256 256
256 252 252 254 253 255 253 255 254 259 255 255 257 252 254 254 255 255 256 256 257 257 257 258 259 260 258 258 257 257 257 257 257 257 256 256 256 256 256 256 256 257 257 258
Wind_Speed
2 2 4 4 10 11 17 15 11 8 12 8 9 11 11 9 9 7 7 7 6 6 6 3 1 3 5 5 6 7 7 6 6 6 6 6 6 6 6 6 6 6 7 6
1 3 2 4 9 12 17 13 13 7 10 8 9 4 6 10 7 7 11 8 8 8 7 5 3 3 4 5 7 7 7 6 6 6 6 6 7 7 7 7 7 7 6 6
3 2 4 11 15 13 9 11 16 20 20 7 8 11 12 13 12 11 9 7 8 8 7 6 6 4 5 6 7 8 8 7 8 7 7 7 7 7 8 8 7 7 7 7
3 2 6 3 2 6 21 14 17 12 7 17 18 14 11 10 12 11 9 8 8 6 5 5 4 3 3 5 5 7 7 9 8 8 8 7 7 7 7 6 7 7 7 7
6 4 9 11 8 10 12 16 16 18 17 7 5 3 7 10 8 11 9 8 7 7 5 6 6 5 6 5 5 7 8 9 10 10 9 9 8 8 6 7 7 6 7 7
3 5 10 6 2 5 6 10 11 20 14 11 7 4 15 6 8 11 8 6 8 7 3 4 5 6 6 6 7 8 9 9 9 10 10 10 9 9 6 7 7 6 7 6
4 4 11 10 6 6 7 9 1 12 13 9 9 10 1 4 3 3 7 8 5 4 6 5 5 6 6 5 9 7 7 7 8 9 10 9 9 7 8 8 8 7 7 5
3 2 14 6 6 12 7 0 3 6 7 10 7 6 3 4 6 7 7 5 6 6 7 6 6 6 7 9 4 6 8 8 9 9 8 8 10 8 9 9 9 8 7 5
12 10 2 8 5 7 4 6 6 4 3 7 9 8 7 6 7 7 8 7 6 8 7 5 7 8 7 5 7 7 8 7 7 8 7 8 10 10 9 9 8 7 6 6
5 3 6 5 5 6 7 5 3 2 4 7 5 6 6 5 7 7 6 8 6 6 8 9 9 10 7 6 8 9 9 8 8 9 8 8 7 7 8 8 7 7 6 5
4 4 5 7 9 10 8 3 3 3 4 5 6 7 7 7 8 9 9 5 6 10 10 12 7 8 6 7 9 9 8 8 8 7 8 8 7 7 7 6 9 8 6 6
7 9 7 4 5 3 7 7 9 8 4 6 6 9 5 8 9 8 9 6 7 8 7 8 7 7 8 9 11 11 11 9 8 8 7 7 7 6 10 11 13 13 15 11
5 5 4 4 3 3 5 6 5 8 9 7 6 9 8 9 9 8 7 5 8 12 9 5 6 7 8 10 11 11 10 10 8 8 8 8 7 7 8 9 13 12 15 16
4 4 6 5 6 5 6 9 6 6 7 8 6 2 2 6 3 6 8 8 5 5 5 6 7 9 9 11 11 11 10 13 9 8 8 8 8 7 7 9 9 7 10 12
10 9 6 2 2 6 2 2 5 8 5 6 5 8 5 8 10 12 4 4 3 4 5 7 7 8 10 12 12 12 10 8 8 7 7 8 7 7 5 6 7 4 2 3
2 3 6 6 12 5 4 2 7 12 4 6 7 8 11 9 10 4 4 7 7 8 9 8 8 8 11 12 11 9 9 12 10 8 7 7 7 7 6 6 6 5 4 4
1 5 3 8 7 8 8 7 10 9 6 8 10 9 6 6 3 4 6 7 7 3 6 8 7 9 10 11 13 8 8 8 11 7 7 7 8 8 7 6 7 6 5 4
4 3 3 5 5 7 8 4 4 5 6 7 8 5 6 6 11 6 5 4 4 2 4 5 8 8 8 8 8 7 7 7 7 8 7 7 7 7 7 7 6 7 4 4
3 5 5 5 4 4 6 7 6 4 6 5 4 7 6 5 5 5 7 7 7 6 7 5 12 10 9 10 10 7 8 8 7 6 6 7 5 5 6 6 6 6 5 5
5 4 5 5 3 5 7 5 5 6 7 5 5 4 6 5 4 6 6 10 8 4 7 9 9 9 9 10 11 7 8 9 9 7 7 7 7 7 6 7 6 6 6 5
7 5 5 5 5 5 6 5 5 7 5 3 5 6 7 4 5 5 3 5 5 4 6 11 8 6 7 8 8 7 8 8 8 8 8 8 7 7 7 6 7 6 6 5
2 3 6 4 4 6 6 5 5 5 6 5 5 4 4 4 3 3 3 5 3 9 6 6 6 10 8 12 7 8 7 8 7 7 6 7 7 7 7 7 8 7 6 6
4 4 4 4 6 6 4 5 7 7 7 6 6 6 6 4 5 5 6 6 4 7 6 6 9 13 14 8 7 7 8 8 8 8 8 8 7 7 7 8 7 7 7 7
4 4 5 1 2 3 8 4 4 6 6 4 7 6 5 3 3 4 1 3 7 11 7 8 12 16 15 7 8 8 8 8 8 7 7 8 7 6 5 6 7 6 6 7
5 5 2 2 4 8 5 4 5 5 4 6 7 6 6 5 5 3 6 4 8 8 6 11 15 16 9 8 9 9 9 8 8 8 8 8 8 8 7 7 7 7 7 7
3 5 4 6 7 4 3 2 5 3 2 5 5 5 4 4 4 3 4 7 7 8 6 7 9 10 9 9 10 10 9 8 9 8 9 8 8 8 8 8 8 8 8 8
5 4 4 5 4 5 4 6 5 9 5 5 7 3 4 4 5 5 4 5 6 7 7 7 8 10 9 9 9 9 9 8 10 9 9 9 8 8 9 9 8 8 8 8
Wind_Direction
143 131 142 184 195 196 215 220 219 202 213 211 202 196 196 192 206 210 203 206 200 223 233 250 217 190 192 192 176 165 168 168 169 158 156 149 141 134 127 120 116 115 107 93
96 48 58 237 217 214 225 231 245 223 231 217 216 119 193 213 210 219 216 208 216 217 220 227 230 229 191 184 175 164 168 173 153 155 157 152 143 141 134 126 116 107 105 100
202 341 59 285 206 208 210 209 212 225 226 152 202 195 205 217 225 228 238 233 216 212 208 199 200 203 209 184 155 167 168 162 164 161 159 155 148 147 146 142 132 123 116 109
131 97 230 246 312 235 212 222 215 233 182 202 218 218 226 234 245 246 230 222 215 199 185 181 173 181 136 146 155 164 170 164 161 161 159 153 153 154 145 144 139 135 125 113
161 202 301 277 187 176 179 241 217 218 223 205 193 78 270 221 208 222 212 204 199 179 167 167 183 170 154 150 155 165 177 172 166 162 160 161 165 159 146 141 141 138 118 117
124 181 219 253 265 123 90 280 216 207 212 178 141 199 249 170 196 217 198 169 168 165 152 165 191 167 165 176 174 191 182 182 170 164 165 168 161 158 152 145 142 136 128 106
176 221 282 238 163 147 106 234 254 183 203 146 188 215 208 155 180 191 172 175 143 154 186 199 170 162 185 177 206 188 159 155 163 165 165 161 151 151 150 143 133 128 126 122
130 167 264 148 71 164 210 250 169 188 185 184 210 136 165 176 172 173 162 148 173 185 218 192 183 174 194 212 174 160 153 158 162 160 159 158 154 150 153 141 133 137 138 132
187 207 207 208 188 219 206 181 214 176 192 203 172 209 195 223 193 193 195 198 191 203 217 202 198 195 204 206 160 154 147 156 159 153 153 156 158 158 146 148 146 154 162 156
104 258 212 218 243 252 222 228 96 181 179 164 196 172 194 210 212 220 218 216 194 179 216 233 203 203 208 165 154 152 159 159 156 159 155 159 161 163 153 157 154 158 166 169
271 291 301 258 232 232 241 124 160 198 175 202 182 207 211 217 218 221 228 210 184 207 222 233 172 194 169 164 153 160 158 158 164 165 165 161 162 168 166 162 166 165 173 165
220 201 179 198 216 215 192 208 212 216 236 236 194 218 187 225 221 216 231 220 221 225 228 226 183 176 175 168 169 162 163 165 168 163 161 156 153 147 164 166 176 180 173 162
216 193 201 210 241 218 181 223 217 208 224 234 231 217 196 225 227 229 224 210 217 225 225 164 176 180 173 176 175 174 172 162 161 161 161 160 156 153 149 165 161 165 165 169
197 121 297 172 230 217 200 229 211 228 224 217 226 198 233 228 255 226 226 227 193 185 189 172 180 198 175 174 173 173 169 165 164 166 165 159 159 158 156 154 156 148 163 168
222 211 225 153 190 230 221 154 248 256 249 269 215 241 189 252 256 254 220 180 149 159 185 187 190 194 172 174 178 173 163 163 161 161 162 156 150 150 144 143 154 133 130 93
354 277 331 287 276 277 213 227 233 261 237 262 252 250 252 241 256 241 179 157 161 209 199 191 194 179 174 173 169 162 160 158 154 153 147 145 145 149 147 152 150 159 162 179
290 296 259 267 252 267 227 226 225 241 238 234 245 250 240 247 263 229 206 190 205 173 179 184 184 161 169 170 163 160 151 150 152 144 157 155 155 166 165 162 169 180 194 186
235 253 249 235 255 288 299 283 267 264 249 253 256 233 229 200 236 233 179 147 119 137 187 168 147 153 160 160 151 148 150 151 157 161 146 154 166 159 166 172 174 184 195 217
233 267 291 272 252 249 271 269 257 273 298 287 268 239 230 224 208 192 163 168 179 189 220 173 170 156 156 157 145 146 147 145 140 144 151 140 144 157 166 176 183 192 178 194
308 256 249 253 258 210 258 249 276 280 277 279 249 239 240 232 192 175 176 202 202 201 153 167 165 160 156 170 149 143 145 150 156 157 156 162 165 173 183 184 182 186 188 197
252 239 241 231 255 258 237 239 242 265 287 264 244 251 243 230 181 151 143 222 222 188 150 162 160 156 159 148 147 146 151 156 162 166 169 174 170 174 181 186 191 191 195 199
281 305 296 278 264 275 255 238 222 265 271 265 255 251 214 225 176 212 241 202 186 165 157 163 163 158 157 150 149 154 160 165 167 161 169 172 179 178 188 188 194 198 201 204
260 245 257 254 252 261 276 244 239 224 239 237 236 230 223 217 183 176 230 201 171 180 165 164 162 161 157 157 160 164 168 173 176 179 181 182 184 187 188 192 196 191 196 204
283 276 264 306 351 326 290 287 230 229 222 232 241 222 185 205 272 229 243 177 171 178 179 162 171 171 165 165 169 175 180 184 184 180 181 179 187 187 186 182 196 197 200 202
256 277 263 284 270 266 254 286 287 269 260 252 248 238 220 224 212 199 178 178 179 181 177 179 178 176 177 176 180 184 186 186 185 180 183 189 192 196 197 194 202 199 203 209
253 267 258 222 246 258 241 199 252 238 227 262 254 227 218 215 223 205 188 177 177 175 177 180 187 182 185 187 187 189 188 184 184 191 190 196 195 197 199 201 204 206 210 212
281 252 292 291 234 241 222 229 243 267 200 219 258 227 202 192 208 208 190 185 191 186 182 187 191 190 188 192 192 192 191 191 193 192 195 198 200 203 202 205 206 207 211 213